#timestamp,LO_Frequency,Hit,StdDev 
1554523215.2,286046999.7,N
1554523235.1,286047002.6,N
1554523236.0,286047002.6,N
1554523255.8,286047002.5,N
1554523275.6,286046999.8,N
1554523295.5,286047002.2,N
1554523315.3,286047002.5,N
1554523335.2,286047002.2,N
1554523355.9,286047002.8,N
1554523375.7,286047002.8,N
1554523395.6,286046999.8,N
1554523415.4,286047002.2,N
1554523435.2,286047002.2,N
1554523455.1,286047002.2,N
1554523456.0,286047002.2,N
1554523475.8,286047002.1,N
1554523495.7,286047002.1,N
1554523515.5,286047002.8,N
1554523535.3,286047002.8,N
1554523555.2,286047002.7,N
1554523575.0,286047002.7,N
1554523575.9,286047002.7,N
1554523595.7,286047002.2,N
1554523615.6,286047002.0,N
1554523635.4,286047002.0,N
1554523655.3,286047001.6,N
1554523675.1,286047001.5,N
1554523676.0,286047001.5,N
1554523695.8,286047002.6,N
1554523715.7,286047001.5,N
1554523735.5,286047001.9,N
1554523755.4,286047001.9,N
1554523775.2,286047002.3,Y
1554523795.0,286047000.9,P
1554523795.9,286047000.9,N
1554523815.8,286047000.9,N
1554523835.6,286046998.1,Y
1554523855.5,286046999.1,P
1554523875.3,286046998.7,N
1554523895.1,286046998.7,N
1554523915.9,286046999.4,N
1554523935.7,286046998.3,N
1554523955.5,286046998.3,N
1554523975.4,286046999.0,N
1554523995.2,286046998.8,N
1554524015.1,286046998.6,N
1554524016.0,286046998.6,N
1554524035.8,286046998.9,N
1554524055.6,286046998.9,N
1554524075.5,286046998.6,N
1554524095.3,286046998.3,N
1554524115.1,286046998.3,N
1554524135.9,286046998.3,N
1554524155.7,286046999.4,N
1554524175.6,286046998.7,N
1554524195.4,286046999.2,N
1554524215.2,286046998.8,N
1554524235.1,286046999.1,N
1554524236.0,286046999.1,N
1554524255.8,286046998.3,N
1554524275.6,286046998.4,N
1554524295.5,286046999.3,N
1554524315.3,286046999.4,N
1554524335.1,286046998.6,N
1554524355.9,286046998.5,N
1554524375.7,286046998.3,Y
1554524395.6,286047001.0,P
1554524415.4,286047000.2,N
1554524435.2,286046999.8,N
1554524455.1,286047000.4,N
1554524456.0,286047000.4,N
1554524475.8,286047000.4,N
1554524495.6,286046999.7,N
1554524515.5,286046999.7,N
1554524535.3,286047000.1,N
1554524555.2,286046999.8,N
1554524575.9,286047000.1,N
1554524595.7,286047002.8,Y
1554524615.6,286047000.2,P
1554524635.4,286047000.1,N
1554524655.2,286047002.6,P
1554524675.1,286047002.3,N
1554524676.0,286047002.3,N
1554524695.8,286047002.3,N
1554524715.7,286046999.7,N
1554524735.5,286046999.7,N
1554524755.3,286047002.2,N
1554524775.2,286047002.2,N
1554524795.0,286047002.7,N
1554524795.9,286047002.7,N
1554524815.7,286047002.4,N
1554524835.6,286047002.4,N
1554524855.4,286047001.6,N
1554524875.3,286047001.9,N
1554524895.1,286047001.9,N
1554524896.0,286047001.9,N
1554524915.8,286047002.3,N
1554524935.7,286047002.6,N
1554524955.5,286047002.2,N
1554524975.3,286047002.2,N
1554524995.2,286047002.0,N
1554525015.0,286047002.6,N
1554525015.9,286047002.6,N
1554525035.8,286047002.0,N
1554525055.6,286047001.4,N
1554525075.4,286047002.2,N
1554525095.3,286047002.5,N
1554525115.1,286047001.5,N
1554525135.8,286047001.5,N
1554525155.7,286047001.8,N
1554525175.5,286047001.3,N
1554525195.3,286047001.6,N
1554525215.2,286047004.3,Y
1554525235.0,286047001.0,P
1554525235.9,286047001.0,N
1554525255.8,286047000.9,N
1554525275.6,286047001.0,N
1554525295.4,286047000.6,N
1554525315.3,286047000.1,N
1554525335.1,286047000.2,N
1554525355.9,286047000.1,N
1554525375.7,286046999.8,N
1554525395.5,286047000.1,N
1554525415.4,286046999.8,N
1554525435.2,286047000.5,N
1554525455.0,286047002.8,Y
1554525455.9,286047002.8,P
1554525475.8,286046999.8,N
1554525495.6,286046999.8,N
1554525515.5,286046999.8,N
1554525535.3,286047000.1,N
1554525555.1,286046999.8,N
1554525575.9,286046999.8,N
1554525595.7,286047000.3,N
1554525615.5,286047000.0,N
1554525635.4,286046999.9,N
1554525655.2,286047000.2,N
1554525675.0,286047002.3,N
1554525675.9,286047002.3,N
1554525695.8,286047002.3,N
1554525715.6,286047000.1,N
1554525735.5,286046999.8,N
1554525755.3,286047002.4,N
1554525775.1,286047002.3,N
1554525795.9,286047002.6,N
1554525815.7,286047002.6,N
1554525835.5,286047002.6,N
1554525855.4,286047002.6,N
1554525875.2,286047000.1,N
1554525895.0,286047002.5,N
1554525895.9,286047002.5,N
1554525915.8,286047002.6,N
1554525935.6,286046999.7,N
1554525955.5,286047002.6,N
1554525975.3,286047002.6,N
1554525995.1,286047002.5,N
1554526015.9,286047002.6,N
1554526035.7,286047002.2,N
1554526055.5,286047002.0,N
1554526075.4,286047002.0,N
1554526095.2,286047002.7,N
1554526115.1,286047001.9,N
1554526116.0,286047001.9,N
1554526135.8,286047002.4,N
1554526155.6,286047002.3,N
1554526175.5,286047002.3,N
1554526195.3,286047002.0,N
1554526215.1,286047002.1,N
1554526235.9,286047002.1,N
1554526255.7,286047002.8,Y
1554526275.6,286047000.5,P
1554526295.4,286047000.9,N
1554526315.2,286047000.7,N
1554526335.1,286047000.7,N
1554526336.0,286047000.7,N
1554526355.8,286047000.8,N
1554526375.6,286047000.9,N
1554526395.5,286047000.8,N
1554526415.3,286047001.0,N
1554526435.2,286047000.8,N
1554526455.9,286047000.8,N
1554526475.7,286046998.5,Y
1554526495.6,286046998.8,P
1554526515.4,286046998.8,N
1554526535.2,286046998.4,N
1554526555.1,286046998.6,N
1554526556.0,286046998.6,N
1554526575.8,286046998.4,N
1554526595.7,286046998.3,N
1554526615.5,286046999.1,N
1554526635.3,286046998.3,N
1554526655.2,286046998.9,N
1554526675.0,286046998.6,N
1554526675.9,286046998.6,N
1554526695.7,286046999.0,N
1554526715.6,286046998.5,N
1554526735.4,286046998.8,N
1554526755.3,286047001.2,N
1554526775.1,286047000.7,N
1554526776.0,286047000.7,N
1554526795.8,286047000.9,N
